Weather History for LFPB - October, 2013

Change the Weather History Date:

Sunday, October 20, 2013

  Actual Average Record
Temperature  
Mean Temperature 62 °F -  
Max Temperature 66 °F 53 °F 68 °F (2008)
Min Temperature 57 °F 42 °F 37 °F (2010)
Degree Days  
Heating Degree Days 4    
Growing Degree Days 12 (Base 50)    
Moisture  
Dew Point 57 °F    
Average Humidity 89    
Maximum Humidity 100    
Minimum Humidity 77    
Precipitation  
Precipitation 0.00 in 0.07 in - ()
Sea Level Pressure  
Sea Level Pressure 29.90 in    
Wind  
Wind Speed 7 mph ()    
Max Wind Speed 15 mph    
Max Gust Speed -    
Visibility 6.0 miles    
Events Rain , Thunderstorm    
Averages and records for this station are not official NWS values.
T = Trace of Precipitation, MM = Missing Value Source: Averaged Metar Reports

Daily Weather History Graph

Daily Weather History Graph

Search for Another Location

Airport or City:

Trip Planner

Search our weather history database for the weather conditions in past years. The results will help you decide how hot, cold, wet, or windy it might be!

Date:

Astronomy

Oct. 20, 2013 Rise Set
Actual Time 8:18 AM CEST 6:50 PM CEST
Civil Twilight 7:46 AM CEST 7:22 PM CEST
Nautical Twilight 7:09 AM CEST 7:59 PM CEST
Astronomical Twilight 6:32 AM CEST 8:36 PM CEST
Moon 7:39 PM CEST (10/20) 9:49 AM CEST (10/20)
Length of Visible Light 11h 36m
Length of Day
10h 32m
Full, 98% of the Moon is Illuminated
Oct 20
Full
Oct 27
Last Quarter
Nov 3
New
Nov 10
First Quarter
Nov 17
Full

Hourly Weather History & Observations

Time (CEST) Temp. Dew Point Humidity Pressure Visibility Wind Dir Wind Speed Gust Speed Precip Events Conditions
12:00 AM 60.8 °F 57.2 °F 88% 29.89 in 6.2 mi South 5.8 mph - N/A   Unknown
12:30 AM 59.0 °F 57.2 °F 94% 29.89 in 6.2 mi South 4.6 mph - N/A   Unknown
1:00 AM 59.0 °F 55.4 °F 88% 29.89 in 6.2 mi SSE 4.6 mph - N/A   Unknown
1:30 AM 59.0 °F 57.2 °F 94% 29.89 in 6.2 mi South 6.9 mph - N/A   Unknown
2:00 AM 59.0 °F 57.2 °F 94% 29.89 in 6.2 mi South 4.6 mph - N/A   Unknown
2:30 AM 59.0 °F 57.2 °F 94% 29.89 in 6.2 mi South 5.8 mph - N/A   Unknown
3:00 AM 59.0 °F 57.2 °F 94% 29.89 in 6.2 mi Variable 3.5 mph - N/A   Unknown
3:30 AM 59.0 °F 57.2 °F 94% 29.89 in 6.2 mi SSW 4.6 mph - N/A   Unknown
4:00 AM 59.0 °F 57.2 °F 94% 29.89 in 6.2 mi SSW 5.8 mph - N/A   Unknown
4:30 AM 59.0 °F 57.2 °F 94% 29.89 in 6.2 mi South 8.1 mph - N/A   Unknown
5:00 AM 59.0 °F 57.2 °F 94% 29.89 in 6.2 mi South 6.9 mph - N/A   Unknown
5:30 AM 59.0 °F 57.2 °F 94% 29.89 in 6.2 mi South 5.8 mph - N/A   Unknown
6:00 AM 59.0 °F 55.4 °F 88% 29.89 in 6.2 mi South 4.6 mph - N/A Rain Light Rain
6:30 AM 59.0 °F 55.4 °F 88% 29.89 in 6.2 mi South 6.9 mph - N/A   Unknown
7:00 AM 59.0 °F 57.2 °F 94% 29.86 in 6.2 mi South 8.1 mph - N/A   Unknown
7:30 AM 59.0 °F 57.2 °F 94% 29.86 in 6.2 mi SW 8.1 mph - N/A Rain Light Rain
8:00 AM 59.0 °F 57.2 °F 94% 29.86 in 6.2 mi SW 4.6 mph - N/A Rain Light Rain
8:30 AM 59.0 °F 57.2 °F 94% 29.89 in 3.1 mi WSW 6.9 mph - N/A Rain Rain
9:00 AM 59.0 °F 55.4 °F 88% 29.89 in 6.2 mi SSW 5.8 mph - N/A Rain Light Rain
9:30 AM 57.2 °F 57.2 °F 100% 29.89 in - South 4.6 mph - N/A Rain Rain
10:00 AM 59.0 °F 57.2 °F 94% 29.89 in 6.2 mi South 10.4 mph - N/A   Mostly Cloudy
10:30 AM 59.0 °F 57.2 °F 94% 29.89 in 6.2 mi SSE 10.4 mph - N/A   Mostly Cloudy
11:00 AM 59.0 °F 57.2 °F 94% 29.89 in 6.2 mi South 9.2 mph - N/A   Mostly Cloudy
11:30 AM 59.0 °F 57.2 °F 94% 29.92 in 6.2 mi South 10.4 mph - N/A   Mostly Cloudy
12:00 PM 59.0 °F 57.2 °F 94% 29.89 in 6.2 mi South 10.4 mph - N/A   Overcast
12:30 PM 60.8 °F 57.2 °F 88% 29.92 in 6.2 mi South 10.4 mph - N/A   Overcast
1:00 PM 60.8 °F 57.2 °F 88% 29.92 in 6.2 mi South 13.8 mph - N/A   Overcast
1:30 PM 62.6 °F 57.2 °F 82% 29.89 in 6.2 mi South 12.7 mph - N/A   Mostly Cloudy
2:00 PM 62.6 °F 57.2 °F 82% 29.89 in 6.2 mi South 12.7 mph - N/A   Overcast
2:30 PM 64.4 °F 59.0 °F 83% 29.89 in 6.2 mi South 12.7 mph - N/A   Overcast
3:00 PM 64.4 °F 59.0 °F 83% 29.86 in 6.2 mi South 13.8 mph - N/A   Mostly Cloudy
3:30 PM 64.4 °F 59.0 °F 83% 29.89 in 6.2 mi South 15.0 mph - N/A   Overcast
4:00 PM 66.2 °F 59.0 °F 78% 29.86 in 6.2 mi South 15.0 mph - N/A   Mostly Cloudy
4:30 PM 64.4 °F 57.2 °F 77% 29.86 in 6.2 mi South 12.7 mph - N/A Rain Rain
5:00 PM 64.4 °F 57.2 °F 77% 29.86 in 6.2 mi SSW 13.8 mph - N/A   Overcast
5:30 PM 64.4 °F 57.2 °F 77% 29.86 in 6.2 mi SSW 9.2 mph - N/A Thunderstorm Mostly Cloudy
6:00 PM 59.0 °F 55.4 °F 88% 29.89 in 0.8 mi WNW 15.0 mph - N/A Rain , Thunderstorm Heavy Thunderstorms and Rain
6:30 PM 57.2 °F 55.4 °F 94% 29.89 in 6.2 mi WSW 10.4 mph - N/A Rain , Thunderstorm Thunderstorms and Rain
7:00 PM 57.2 °F 55.4 °F 94% 29.89 in 6.2 mi SSW 8.1 mph - N/A   Unknown
7:30 PM 59.0 °F 55.4 °F 88% 29.89 in 6.2 mi SW 8.1 mph - N/A   Unknown
8:00 PM 59.0 °F 55.4 °F 88% 29.92 in 6.2 mi SW 8.1 mph - N/A   Unknown
8:30 PM 59.0 °F 55.4 °F 88% 29.92 in 6.2 mi SW 10.4 mph - N/A   Unknown
9:00 PM 59.0 °F 55.4 °F 88% 29.92 in 6.2 mi SW 10.4 mph - N/A   Unknown
9:30 PM 59.0 °F 55.4 °F 88% 29.95 in 6.2 mi SW 6.9 mph - N/A   Unknown
10:00 PM 59.0 °F 55.4 °F 88% 29.95 in 6.2 mi SSW 4.6 mph - N/A   Overcast
10:30 PM 59.0 °F 55.4 °F 88% 29.95 in 6.2 mi SSW 8.1 mph - N/A   Overcast
11:00 PM 59.0 °F 55.4 °F 88% 29.95 in 6.2 mi SSW 10.4 mph - N/A   Unknown
11:30 PM 59.0 °F 55.4 °F 88% 29.98 in 6.2 mi SSW 9.2 mph - N/A   Unknown